www.pogodaiklimat.ru

АРХИВ ПОГОДЫ в Ростове-на-Дону

Время (UTC), дата Ветер
(напр.,м/с)
 
Видим.   Явления Облачность Т
(С)
Тd
(С)
f
(%)
Тe
(С)
Тes
(С)
Комфортность P
(гПа)
Po
(гПа)
Тmin
(С)
Tmax
(С)
R
(мм)
S
(см)
06 19.01 ЮВ 2 10 км 9/4 1200 м
[Sc Ac trans]
+1.0 -1.0 86 -2 -2 тепло 1024.0 1014.6
09 19.01 Ю 3 10 км 9/3 1000 м
[Sc Ac trans]
+2.1 -0.1 85 -2 -1 по сезону 1022.8 1013.4
12 19.01 Ю 2 10 км 8/3 600 м
[Sc Ac trans]
+4.0 +0.9 80 +1 +2 тепло 1021.1 1011.8
15 19.01 В 1 8000 м дымка 10/8 720 м
[Sc Ac und]
+4.3 +2.6 89 +3 +3 тепло 1020.9 1011.6 +4.5
18 19.01 Ю 3 8000 м 9/9 720 м
[Sc]
+3.6 +1.7 87 -0 -0 тепло 1020.5 1011.2
21 19.01 ЮЗ 2 5000 м слабый дождь 10/6 570 м
[Sc As op]
+2.3 +0.9 90 -1 -1 тепло 1020.3 1010.9
00 20.01 штиль 0 1200 м слабый дождь 10/10 270 м
[Frnb Ns]
+1.9 +1.3 96 +1 +1 тепло 1019.8 1010.4
03 20.01 ЮВ 1 200 м слабый дождь {туман} туман ?/? +1.7 +1.4 98 -0 -0 тепло 1019.7 1010.3 +1.4 4
06 20.01 Ю 1 2500 м слабый дождь {туман} 10/5 150 м
[Frnb As op]
+2.3 +2.1 99 0 +1 тепло 1019.8 1010.4 +1.2
09 20.01 ЮВ 2 500 м слабый дождь {туман} туман 10/3 200 м
[Frnb As op]
+2.2 +1.9 98 -1 -1 тепло 1019.4 1010.0
12 20.01 ЮВ 2 200 м слабый дождь {ливн. осадки} туман ?/? +2.1 +2.0 99 -1 -1 по сезону 1019.2 1009.8
15 20.01 В 2 200 м слабый дождь {морось} туман ?/? +1.5 +1.5 100 -2 -2 по сезону 1020.2 1010.8 +2.8 5
18 20.01 В 3 300 м слабый дождь {ливн. осадки} туман ?/? +1.3 +1.3 100 -3 -3 по сезону 1021.0 1011.6
21 20.01 В 5 700 м слабый дождь {морось} туман ?/? +1.3 +1.3 100 -5 -5 по сезону 1022.0 1012.6
00 21.01 В 6 1800 м слабая морось {дождь} 10/10 60 м
[St]
+1.0 +0.9 99 -6 -6 по сезону 1022.8 1013.4
03 21.01 В 6 700 м слабая морось {туман} туман ?/? +0.8 +0.8 100 -6 -6 по сезону 1022.9 1013.5 +0.7 8
06 21.01 В 5 300 м слабая морось {туман} туман ?/? +0.7 +0.7 100 -6 -6 по сезону 1023.7 1014.3 +0.6
09 21.01 В 6 200 м туман {морось} ?/? +0.8 +0.8 100 -6 -6 по сезону 1024.0 1014.6
12 21.01 В 6
{10}
100 м туман {морось} ?/? +1.0 +1.0 100 -6 -6 по сезону 1023.4 1014.0
15 21.01 В 7-10
{10}
100 м слабый дождь {туман} туман ?/? +0.6 +0.6 100 -7 -7 по сезону 1024.1 1014.6 +1.0 0.0
18 21.01 В 8-10
{11}
300 м туман {дождь} ?/? +0.6 +0.6 100 -7 -7 по сезону 1024.1 1014.6
21 21.01 В 7
{11}
2300 м дымка {дождь, туман} 10/10 60 м
[St]
+0.4 +0.4 100 -7 -7 по сезону 1024.6 1015.1
00 22.01 В 7
{11}
2900 м слабый ливневой дождь 10/8 90 м
[Cb calv Ac und]
+0.3 +0.2 99 -7 -7 по сезону 1025.1 1015.6
03 22.01 В 8-10
{10}
1100 м слабый ливневой дождь 10/8 60 м
[Cb calv Ac und]
+0.4 +0.4 100 -7 -7 по сезону 1025.1 1015.6 +0.2 1
06 22.01 В 6
{11}
200 м туман {ливн. осадки, дождь} ?/? +0.2 +0.2 100 -7 -7 по сезону 1026.3 1016.8 +0.1
09 22.01 В 6 5000 м в посл. час туман {дождь} 10/8 150 м
[St Ac und]
+0.5 +0.4 99 -6 -6 по сезону 1027.4 1017.9
12 22.01 В 5 5000 м дымка {дождь, туман} 10/10 150 м
[St]
+1.2 +0.6 96 -5 -5 по сезону 1027.5 1018.0
15 22.01 В 4 2300 м дымка 10/10 60 м
[St]
+0.6 +0.4 99 -5 -5 по сезону 1028.6 1019.1 +1.5 0.7
18 22.01 В 5 200 м туман ?/? +0.5 +0.5 100 -6 -6 по сезону 1029.1 1019.6
21 22.01 В 5 200 м слабая морось {туман} туман ?/? +0.2 +0.2 100 -6 -6 по сезону 1029.9 1020.4
00 23.01 В 6 300 м слабая переохл. морось (гололёд) {туман} [диам. гололёда 0 мм] ?/? -0.1 -0.1 100 -7 -7 по сезону 1030.2 1020.7
03 23.01 В 6
{10}
900 м слабая переохл. морось (гололёд) {туман} [диам. гололёда 3 мм] ?/? -0.6 -0.6 100 -8 -8 по сезону 1030.7 1021.1 -0.7 0.0
06 23.01 В 7
{10}
3700 м слабая переохл. морось (гололёд) {туман} [диам. гололёда 4 мм] 10/10 90 м
[St]
-0.8 -1.1 98 -8 -8 по сезону 1031.3 1021.7 -1.0
09 23.01 В 7 6000 м дымка {морось, туман} [диам. гололёда 1 мм] 10/10 120 м
[St]
-0.3 -0.9 96 -8 -8 по сезону 1031.6 1022.0
12 23.01 В 7-11
{11}
7000 м дымка {морось} [диам. гололёда 1 мм] 10/10 150 м
[St]
-0.4 -1.0 96 -8 -8 по сезону 1031.1 1021.5
15 23.01 В 8-12
{12}
8000 м [диам. гололёда 0 мм] 10/8 210 м
[St Ac und]
+0.2 -0.5 95 -7 -7 по сезону 1031.9 1022.4 +0.3 0.0
18 23.01 В 10-13
{14}
8000 м 10/10 180 м
[St]
-0.8 -1.5 95 -9 -9 по сезону 1032.0 1022.4
21 23.01 В 10-14
{15}
8000 м 10/10 180 м
[St]
-2.4 -3.1 95 -12 -12 прохладно 1031.9 1022.3
00 24.01 В 10-15
{15}
8000 м 10/10 210 м
[St]
-4.2 -5.1 93 -14 -14 прохладно 1031.2 1021.5
03 24.01 В 11-15
{15}
8000 м 4/4 300 м
[Sc]
-7.2 -8.9 88 -18 -18 очень
холодно
1030.6 1020.8 -7.2
06 24.01 В 11-15
{15}
10 км 10/8 300 м
[St Ac und]
-8.2 -9.9 88 -19 -19 очень
холодно
1030.6 1020.8 -8.2
09 24.01 В 12-15
{16}
7000 м дымка 10/10 210 м
[St]
-6.4 -7.2 94 -17 -17 очень
холодно
1029.2 1019.4
12 24.01 В 11-15
{18}
10 км 10/10 300 м
[St]
-4.8 -6.0 91 -15 -15 очень
холодно
1027.9 1018.2
15 24.01 В 14-18
{15}
10 км 10/10 270 м
[St]
-3.7 -5.0 91 -14 -14 холодно 1027.7 1018.1 -3.7
18 24.01 В 11-15
{18}
8000 м 10/10 270 м
[St]
-4.8 -6.0 91 -15 -15 холодно 1027.7 1018.0
21 24.01 В 13-16
{16}
8000 м 10/10 420 м
[Sc]
-4.9 -6.4 89 -16 -16 холодно 1026.3 1016.6
00 25.01 В 13-18
{18}
8000 м 10/10 420 м
[Sc]
-2.7 -4.5 87 -13 -13 прохладно 1025.2 1015.6
03 25.01 В 10-15
{19}
8000 м 10/10 300 м
[St]
-4.1 -5.4 91 -14 -14 прохладно 1024.7 1015.1 -5.2
06 25.01 В 13-17
{19}
10 км 10/10 300 м
[Sc]
-2.7 -4.2 89 -13 -13 прохладно 1024.6 1015.0
09 25.01 В 14-17
{18}
10 км 10/10 240 м
[Sc]
-2.1 -3.3 91 -12 -12 прохладно 1024.3 1014.7
12 25.01 В 11-15
{18}
10 км 10/10 240 м
[Sc]
-1.2 -2.6 90 -10 -10 прохладно 1023.8 1014.3
15 25.01 В 12-15
{16}
8000 м 10/10 240 м
[Sc]
-1.0 -2.2 92 -10 -10 прохладно 1024.0 1014.5 -0.9
18 25.01 В 10-15
{16}
8000 м 10/10 210 м
[Sc]
-0.9 -1.8 94 -10 -10 по сезону 1024.2 1014.7
21 25.01 В 10-13
{15}
8000 м слабый переохл. дождь (гололёд) [диам. гололёда <0.1 мм] 10/10 270 м
[Sc]
-1.5 -2.6 92 -10 -10 по сезону 1023.7 1014.2
00 26.01 В 8-11
{15}
8000 м слабый переохл. дождь (гололёд) [диам. гололёда 1 мм] 10/10 210 м
[Sc]
-2.3 -3.1 94 -11 -11 по сезону 1024.2 1014.6
03 26.01 В 8-12
{13}
8000 м слабый переохл. дождь (гололёд) [диам. гололёда 2 мм] 10/10 150 м
[Sc]
-2.7 -3.2 96 -11 -11 по сезону 1024.2 1014.6 -2.7 0.0

 

Местоположение метеостанции Ростов-на-Дону (Ростовская область, Россия): широта 47.27 долгота 39.82 высота над уровнем моря 75 м.

В архиве по умолчанию представлена погода в Ростове-на-Дону за последнюю неделю. Архивные данные за месяц целиком и за предыдущие месяцы, начиная с января 2011 года, Вы можете получить, выбрав интересующий диапазон дат из раскрывающегося списка и нажав кнопку "Ввод!".

Внимание! Время в таблицах - всемирное. Для получения местного времени необходимо прибавить поправку, которая в Ростове-на-Дону равна 3 ч.

Ветер - указаны скорость ветра в м/с - средняя за 10 мин, порывы в срок и между сроками (в фигурных скобках) и направление, откуда дует ветер: С - северный, СВ - северо-восточный, В - восточный, ЮВ - юго-восточный, Ю - южный, ЮЗ - юго-западный, З - западный, СЗ - северо-западный.
Видимость - горизонтальная дальность видимости в метрах или километрах. При видимости от 1 до 10 км при отсутствии осадков обычно наблюдается дымка, при ухудшении видимости до 1 км и менее - туман. В сухую погоду видимость может ухудшаться дымом, пылью или мглою.
Явления - указаны атмосферные явления, наблюдавшиеся в срок или в последний час перед сроком; фигурными скобками обозначены явления, наблюдавшиеся между сроками (за 1-3 часа до срока); квадратными скобками обозначены град или гололедные отложения с указанием их диаметра в мм.
Облачность - указаны через наклонную черту общая и нижняя облачность в баллах и высота нижней границы облаков в метрах; квадратными скобками обозначены формы облаков: Ci - перистые, Cs - перисто-слоистые, Cc - перисто-кучевые, Ac - высококучевые, As - высокослоистые, Sc - слоисто-кучевые, Ns - слоисто-дождевые, Cu - кучевые, Cb - кучево-дождевые. Подробнее классификацию облаков см. в Атласе облаков (PDF).
T - Температура воздуха - температура, измеренная на высоте 2 м над землей.
Td - Температура точки росы - температура, при понижении до которой содержащийся в воздухе водяной пар достигнет насыщения.
f - Относительная влажность воздуха - влажноcть воздуха, измеренная на высоте 2 м над землей.
Te - Эффективная температура - температура, которую ощущает одетый по сезону человек в тени. Характеристика душности погоды. При расчете учитывается влияние влажности воздуха и скорости ветра на теплоощущения человека.
Tes - Эффективная температура на солнце - температура, которую ощущает человек, с поправкой на солнечный нагрев. Характеристика знойности погоды. Зависит от высоты солнца над горизонтом, облачности и скорости ветра. Ночью, в пасмурную погоду, а также при ветре 12 м/с и более поправка равна нулю.
P - Атмосферное давление - приведенное к уровню моря атмосферное давление.
Po - Атмосферное давление - измеренное на уровне метеостанции атмосферное давление.
Tmin - Минимальная температура - минимум температуры воздуха на высоте 2 м над землей.
Tmax - Максимальная температура - максимум температуры воздуха на высоте 2 м над землей.
R - Количество осадков - Количество выпавших осадков, мм.
S - Снежный покров - Высота снежного покрова, см.